Dewpoint
31 40 37 38 49 50 58 61 61 61 61 61 60 59 59 59 58 58 56 56 56 55 56 55 54 54 53 52 51 49 50 50 50 51 50 49 53 56 57 58 58 59 58
38 40 42 42 46 50 57 60 61 60 60 61 61 60 59 59 59 58 56 55 55 55 55 55 54 54 53 51 50 50 48 48 48 49 49 49 50 51 53 56 58 57 57
38 38 39 41 43 45 49 59 60 60 60 61 61 58 59 58 58 58 57 55 54 54 55 55 55 54 54 52 51 50 49 50 48 45 47 44 47 46 47 54 55 55 56
35 35 36 37 39 41 44 48 58 60 60 60 59 59 58 57 58 58 57 56 54 53 54 54 54 54 54 53 51 50 49 50 48 45 41 43 44 45 45 47 52 54 54
33 33 34 35 37 38 41 45 53 59 60 60 59 59 58 58 56 57 56 56 54 53 54 54 53 54 54 53 52 49 48 50 49 46 42 40 40 42 44 46 49 51 53
30 31 32 33 34 36 38 42 47 58 60 60 60 59 57 56 56 55 56 56 54 53 52 52 52 53 54 53 52 50 49 50 49 47 43 40 40 40 42 41 43 50 50
28 29 29 30 32 34 36 39 43 49 58 59 59 58 57 56 56 55 55 54 54 53 52 52 51 52 53 53 53 51 49 49 49 48 45 42 40 41 41 43 42 47 47
26 27 28 29 30 32 34 37 40 45 48 57 58 58 56 57 57 55 55 54 53 53 52 51 51 51 52 53 53 52 51 49 49 48 48 45 41 41 41 42 43 42 42
25 25 26 27 29 31 33 35 37 40 43 47 57 57 56 54 55 55 55 54 54 53 51 51 51 50 51 52 53 53 51 49 49 48 48 46 44 42 41 42 44 42 40
23 24 26 27 28 29 31 34 35 37 39 42 47 56 56 56 55 54 54 54 54 53 51 50 50 50 49 51 52 52 52 50 49 49 47 46 45 43 43 42 43 42 40
23 24 25 26 27 28 30 32 33 35 37 39 43 53 56 56 57 56 56 56 55 53 51 50 49 49 49 49 51 51 51 50 49 48 47 46 46 44 44 42 42 42 41
23 23 25 25 25 27 28 29 31 32 34 37 39 45 53 55 55 55 55 56 57 56 54 51 50 50 49 49 49 49 50 50 49 47 47 46 45 44 44 43 42 42 41
21 22 23 23 24 25 27 28 29 31 33 35 37 40 42 47 50 53 52 52 54 55 55 53 51 50 50 49 49 49 50 50 50 48 47 46 45 45 44 44 43 42 41
20 20 21 22 23 24 26 26 28 30 31 34 35 36 38 41 45 48 52 53 53 53 52 51 50 50 49 50 50 50 51 50 49 48 47 46 45 45 44 44 44 43 42
17 18 20 20 22 23 24 26 26 28 30 31 32 33 36 38 41 43 47 53 53 53 52 52 51 51 50 49 50 50 50 49 49 49 49 48 46 45 45 44 44 43 42
16 17 18 19 20 21 23 25 26 27 30 29 30 32 34 35 38 40 42 47 51 52 51 52 51 51 50 49 49 50 50 49 49 48 48 48 46 46 47 46 46 45 43
15 16 17 19 20 20 22 23 25 27 27 29 30 30 32 34 36 38 40 41 44 49 51 51 51 50 50 49 49 48 49 48 49 48 47 47 47 46 47 47 47 46 46
14 16 17 18 19 21 21 24 24 25 26 27 28 30 31 32 34 36 37 39 41 44 45 47 50 49 50 48 48 48 48 47 46 47 47 47 46 46 46 46 45 44 45
15 16 18 19 19 19 21 22 22 23 24 25 27 29 31 31 32 33 35 37 39 41 41 43 44 45 45 47 48 47 48 47 47 46 46 46 46 46 46 45 44 44 44
16 16 17 19 18 19 21 21 20 21 21 24 26 29 31 31 31 32 33 36 37 38 39 39 40 42 42 45 47 47 46 45 44 44 45 46 46 47 47 46 45 43 43
16 17 17 17 18 19 20 19 19 19 22 25 27 28 30 30 31 31 32 33 35 36 36 37 38 38 41 43 46 46 45 44 43 43 42 43 45 46 46 46 43 42 41
14 15 15 16 18 19 19 18 18 21 23 25 25 27 28 29 30 31 31 32 33 33 34 34 35 37 38 41 43 45 44 44 42 41 41 42 43 44 44 44 44 43 40
12 14 15 15 17 17 19 16 19 21 22 23 24 26 27 28 28 28 30 30 32 32 32 32 33 34 35 36 39 41 42 41 40 41 41 41 42 42 43 41 41 39 35
8 9 11 13 14 16 17 18 20 20 21 22 23 26 25 26 27 28 29 29 31 30 30 31 31 32 33 34 35 37 39 40 39 40 40 41 41 41 40 39 36 33 33
7 8 9 10 12 13 15 18 19 19 19 21 23 24 24 24 25 26 27 29 31 32 31 31 31 31 31 33 35 36 38 39 39 38 38 36 35 35 35 33 33 32 32
7 7 8 9 10 13 14 16 17 18 19 20 21 23 23 22 23 24 25 27 28 28 29 31 32 32 33 34 35 35 36 39 40 37 34 33 34 33 33 32 31 31 31
Lifted_Index
8 8 8 8 8 6 4 1 1 1 1 1 1 1 1 1 1 2 3 4 5 6 7 7 8 8 9 9 8 8 7 6 6 6 6 6 6 5 4 3 3 3 3
8 8 8 8 8 6 4 2 1 1 1 1 1 1 1 1 1 2 2 3 4 6 7 7 7 8 9 9 8 7 7 7 6 6 7 7 6 5 4 3 3 3 3
7 7 8 8 8 7 5 3 1 1 1 1 1 1 1 1 2 2 2 2 3 5 6 7 7 8 8 8 8 7 7 7 7 7 7 7 7 6 5 4 3 3 3
7 7 7 7 7 7 6 4 2 1 0 0 1 1 1 2 2 2 2 2 3 4 5 6 6 7 7 7 7 7 7 7 7 7 7 8 8 7 6 5 4 3 3
6 6 7 7 7 7 7 6 3 1 -0 -0 0 1 1 1 2 2 2 2 3 3 4 5 6 6 7 7 7 7 7 7 7 7 7 7 8 7 6 6 5 4 4
6 6 7 7 7 7 7 6 4 2 0 -0 -0 0 1 1 2 2 2 2 2 3 3 4 5 5 6 6 7 6 6 6 7 7 7 7 7 7 7 6 6 5 5
6 6 7 7 7 7 7 7 5 3 1 0 0 0 1 1 2 2 2 2 2 2 3 3 4 5 5 5 6 6 6 6 6 6 6 6 6 6 7 6 6 6 6
7 7 7 7 7 7 7 7 6 4 3 2 1 1 1 1 2 2 2 2 2 2 2 3 3 4 4 4 5 5 5 6 6 6 6 6 6 6 6 6 6 6 6
7 7 7 7 7 7 7 7 6 5 4 3 2 1 1 1 2 2 2 2 2 2 2 3 3 3 4 4 4 4 4 5 6 6 6 6 6 5 6 6 6 6 6
7 8 8 8 8 7 7 7 6 5 4 4 3 2 2 1 1 2 2 2 2 2 2 3 3 3 3 4 4 4 4 4 5 6 6 6 6 5 5 5 6 6 6
8 9 9 9 8 8 7 7 6 5 5 4 4 3 2 2 2 2 2 2 3 3 3 3 3 3 3 3 3 3 3 4 4 4 5 6 6 6 6 6 6 6 7
10 10 10 9 9 8 7 7 6 6 5 5 4 3 3 2 2 3 3 3 3 3 3 3 3 3 3 3 3 3 3 3 3 4 4 5 6 7 6 6 6 7 7
12 11 11 10 9 9 8 7 7 6 6 5 4 4 3 3 3 3 3 3 3 3 3 3 3 3 3 3 3 3 3 4 4 3 3 5 7 8 7 7 7 7 7
13 13 12 11 11 11 9 9 8 7 6 5 5 4 3 4 4 4 4 4 4 3 3 3 3 3 3 3 3 3 4 4 4 4 4 5 7 8 8 7 7 7 7
14 14 13 13 13 12 12 11 10 9 8 6 5 4 4 4 4 4 4 4 4 4 3 3 3 3 3 3 3 4 4 4 4 5 5 6 7 8 8 7 7 7 7
15 15 15 14 14 14 14 13 12 11 10 8 6 5 5 4 4 4 4 4 4 4 4 4 4 4 4 4 4 4 5 5 5 5 6 7 7 8 8 7 7 7 7
16 16 16 16 16 15 15 14 14 13 11 10 8 7 6 5 4 4 4 4 4 4 4 4 4 4 4 4 5 5 5 5 5 6 6 7 8 8 8 7 7 7 7
18 18 18 17 17 17 16 16 15 14 13 11 10 9 8 7 6 5 4 4 4 4 4 4 4 4 4 4 5 5 6 6 6 6 6 7 7 8 7 7 7 7 6
19 19 19 19 18 18 17 16 15 15 13 12 12 11 11 9 8 6 5 4 4 4 4 4 4 4 4 4 4 5 5 5 6 6 6 7 7 7 7 7 7 6 6
19 19 19 19 19 18 18 16 15 15 14 14 14 14 13 11 10 8 7 6 5 4 4 4 4 4 4 4 4 4 4 5 5 5 6 6 6 6 7 7 6 6 5
19 19 19 19 19 19 18 17 16 16 16 16 16 15 14 13 12 11 10 8 7 6 5 5 5 5 4 4 4 4 4 4 5 5 5 5 5 5 5 5 5 5 4
18 18 18 18 19 19 19 18 17 18 18 17 17 16 16 15 14 13 11 10 9 8 7 6 5 5 6 5 5 5 5 5 5 5 5 5 5 5 5 5 4 4 4
17 18 18 18 19 19 19 18 18 18 18 17 17 17 17 16 15 14 12 11 10 9 8 7 6 7 7 7 6 6 6 6 6 6 6 6 6 5 5 5 5 5 5
16 17 17 18 18 19 19 19 19 18 18 18 17 17 17 17 16 15 14 13 12 11 10 9 8 8 8 8 8 8 7 7 7 7 7 7 6 6 6 6 5 5 5
16 16 16 17 18 19 19 19 19 19 18 18 18 18 18 18 17 17 16 15 15 14 13 12 11 10 9 9 9 9 8 8 7 7 7 7 7 7 7 6 6 6 6
15 16 16 16 17 18 19 19 19 19 18 18 18 18 18 18 18 17 17 17 17 16 15 14 12 11 10 10 10 9 9 8 7 7 7 7 7 7 7 7 7 7 6